TimeCST,TemperatureF,Dew PointF,Humidity,Sea Level PressureIn,VisibilityMPH,Wind Direction,Wind SpeedMPH,Gust SpeedMPH,PrecipitationIn,Events,Conditions,WindDirDegrees,DateUTC
12:15 AM,23.0,21.2,93,30.27,5.0,West,4.6,-,N/A,,Clear,260,2013-01-03 06:15:00
12:35 AM,23.0,19.4,86,30.26,10.0,West,3.5,-,N/A,,Clear,260,2013-01-03 06:35:00
12:55 AM,24.8,21.2,86,30.27,10.0,West,4.6,-,N/A,,Clear,260,2013-01-03 06:55:00
1:15 AM,24.8,21.2,86,30.28,10.0,WSW,3.5,-,N/A,,Clear,240,2013-01-03 07:15:00
1:35 AM,24.8,21.2,86,30.27,10.0,Calm,Calm,-,N/A,,Clear,0,2013-01-03 07:35:00
1:55 AM,23.0,19.4,86,30.28,10.0,Calm,Calm,-,N/A,,Clear,0,2013-01-03 07:55:00
2:15 AM,23.0,19.4,86,30.29,7.0,Calm,Calm,-,N/A,,Clear,0,2013-01-03 08:15:00
2:35 AM,23.0,19.4,86,30.29,7.0,Calm,Calm,-,N/A,,Clear,0,2013-01-03 08:35:00
2:55 AM,21.2,17.6,86,30.28,5.0,Calm,Calm,-,N/A,,Clear,0,2013-01-03 08:55:00
3:15 AM,23.0,19.4,86,30.28,5.0,Calm,Calm,-,N/A,,Clear,0,2013-01-03 09:15:00
3:35 AM,23.0,19.4,86,30.27,7.0,SSE,4.6,-,N/A,,Clear,150,2013-01-03 09:35:00
3:55 AM,23.0,19.4,86,30.28,7.0,Calm,Calm,-,N/A,,Clear,0,2013-01-03 09:55:00
4:15 AM,21.2,17.6,86,30.28,5.0,Calm,Calm,-,N/A,,Clear,0,2013-01-03 10:15:00
4:35 AM,19.4,15.8,86,30.28,4.0,Calm,Calm,-,N/A,,Clear,0,2013-01-03 10:35:00
4:55 AM,19.4,15.8,86,30.29,4.0,Calm,Calm,-,N/A,,Clear,0,2013-01-03 10:55:00
5:15 AM,21.2,17.6,86,30.31,4.0,Calm,Calm,-,N/A,,Clear,0,2013-01-03 11:15:00
5:35 AM,21.2,19.4,93,30.31,5.0,Calm,Calm,-,N/A,,Clear,0,2013-01-03 11:35:00
5:55 AM,23.0,19.4,86,30.31,5.0,Calm,Calm,-,N/A,,Clear,0,2013-01-03 11:55:00
6:15 AM,21.2,17.6,86,30.32,4.0,Calm,Calm,-,N/A,,Clear,0,2013-01-03 12:15:00
6:35 AM,19.4,17.6,93,30.33,5.0,Calm,Calm,-,N/A,,Clear,0,2013-01-03 12:35:00
6:55 AM,21.2,17.6,86,30.33,4.0,Calm,Calm,-,N/A,,Clear,0,2013-01-03 12:55:00
7:15 AM,19.4,15.8,86,30.34,3.0,Calm,Calm,-,N/A,,Clear,0,2013-01-03 13:15:00
7:35 AM,23.0,19.4,86,30.34,3.0,Calm,Calm,-,N/A,,Clear,0,2013-01-03 13:35:00
7:55 AM,23.0,19.4,86,30.35,3.0,Calm,Calm,-,N/A,,Clear,0,2013-01-03 13:55:00
8:15 AM,23.0,21.2,93,30.35,4.0,Calm,Calm,-,N/A,,Clear,0,2013-01-03 14:15:00
8:35 AM,26.6,23.0,86,30.35,5.0,WSW,4.6,-,N/A,,Clear,250,2013-01-03 14:35:00
8:55 AM,28.4,24.8,86,30.35,7.0,West,3.5,-,N/A,,Clear,270,2013-01-03 14:55:00
9:15 AM,28.4,24.8,86,30.37,10.0,West,5.8,-,N/A,,Clear,260,2013-01-03 15:15:00
9:35 AM,28.4,24.8,86,30.37,7.0,West,4.6,-,N/A,,Clear,270,2013-01-03 15:35:00
9:55 AM,30.2,24.8,80,30.38,10.0,West,3.5,-,N/A,,Clear,260,2013-01-03 15:55:00
10:15 AM,32.0,26.6,80,30.38,10.0,WSW,3.5,-,N/A,,Clear,250,2013-01-03 16:15:00
10:35 AM,33.8,26.6,75,30.38,10.0,WSW,4.6,-,N/A,,Clear,250,2013-01-03 16:35:00
10:55 AM,33.8,26.6,75,30.38,10.0,SW,3.5,-,N/A,,Clear,230,2013-01-03 16:55:00
11:15 AM,33.8,26.6,75,30.38,10.0,SW,3.5,-,N/A,,Clear,230,2013-01-03 17:15:00
11:35 AM,35.6,26.6,70,30.38,10.0,SW,3.5,-,N/A,,Clear,220,2013-01-03 17:35:00
11:55 AM,35.6,26.6,70,30.37,10.0,WSW,3.5,-,N/A,,Clear,240,2013-01-03 17:55:00
12:15 PM,37.4,26.6,65,30.37,10.0,WSW,3.5,-,N/A,,Clear,240,2013-01-03 18:15:00
12:35 PM,37.4,26.6,65,30.36,10.0,WSW,4.6,-,N/A,,Clear,240,2013-01-03 18:35:00
12:55 PM,37.4,28.4,70,30.36,10.0,WSW,5.8,-,N/A,,Clear,250,2013-01-03 18:55:00
1:15 PM,39.2,26.6,61,30.36,10.0,WSW,4.6,-,N/A,,Clear,240,2013-01-03 19:15:00
1:35 PM,41.0,30.2,65,30.36,10.0,WSW,5.8,-,N/A,,Clear,250,2013-01-03 19:35:00
1:55 PM,41.0,28.4,61,30.36,10.0,West,4.6,-,N/A,,Clear,260,2013-01-03 19:55:00
2:15 PM,41.0,28.4,61,30.36,10.0,West,5.8,-,0.03,,Clear,270,2013-01-03 20:15:00
2:35 PM,-9999,-9999,N/A,30.36,10.0,WSW,4.6,-,0.03,,Clear,250,2013-01-03 20:35:00
2:55 PM,-9999,-9999,N/A,30.37,10.0,WSW,3.5,-,0.03,,Clear,250,2013-01-03 20:55:00
3:15 PM,-9999,-9999,N/A,30.37,10.0,West,4.6,-,N/A,,Clear,270,2013-01-03 21:15:00
3:35 PM,-9999,-9999,N/A,30.36,10.0,West,4.6,-,N/A,,Clear,260,2013-01-03 21:35:00
3:55 PM,-9999,-9999,N/A,30.37,10.0,West,4.6,-,N/A,,Clear,260,2013-01-03 21:55:00
4:15 PM,-9999,-9999,N/A,30.37,10.0,Calm,Calm,-,N/A,,Clear,0,2013-01-03 22:15:00
4:35 PM,-9999,-9999,N/A,30.37,10.0,Calm,Calm,-,N/A,,Clear,0,2013-01-03 22:35:00
4:55 PM,-9999,-9999,N/A,30.37,10.0,Calm,Calm,-,N/A,,Clear,0,2013-01-03 22:55:00
5:15 PM,-9999,-9999,N/A,30.37,10.0,Calm,Calm,-,N/A,,Clear,0,2013-01-03 23:15:00
5:35 PM,-9999,-9999,N/A,30.38,10.0,Calm,Calm,-,N/A,,Clear,0,2013-01-03 23:35:00
5:55 PM,-9999,-9999,N/A,30.39,10.0,Calm,Calm,-,N/A,,Clear,0,2013-01-03 23:55:00
6:15 PM,-9999,-9999,N/A,30.39,10.0,Calm,Calm,-,N/A,,Clear,0,2013-01-04 00:15:00
6:35 PM,-9999,-9999,N/A,30.40,7.0,Calm,Calm,-,N/A,,Clear,0,2013-01-04 00:35:00
6:55 PM,-9999,-9999,N/A,30.40,10.0,Calm,Calm,-,N/A,,Clear,0,2013-01-04 00:55:00
7:15 PM,-9999,-9999,N/A,30.40,10.0,Calm,Calm,-,N/A,,Clear,0,2013-01-04 01:15:00
7:35 PM,-9999,-9999,N/A,30.41,7.0,Calm,Calm,-,N/A,,Clear,0,2013-01-04 01:35:00
7:55 PM,-9999,-9999,N/A,30.41,7.0,Calm,Calm,-,N/A,,Clear,0,2013-01-04 01:55:00
8:15 PM,-9999,-9999,N/A,30.41,7.0,Calm,Calm,-,N/A,,Clear,0,2013-01-04 02:15:00
8:35 PM,-9999,-9999,N/A,30.42,7.0,Calm,Calm,-,N/A,,Clear,0,2013-01-04 02:35:00
8:55 PM,-9999,-9999,N/A,30.42,2.5,Calm,Calm,-,N/A,,Clear,0,2013-01-04 02:55:00
9:15 PM,-9999,-9999,N/A,30.43,3.0,Calm,Calm,-,N/A,,Clear,0,2013-01-04 03:15:00
9:35 PM,-9999,-9999,N/A,30.43,1.2,Calm,Calm,-,N/A,,Mist,0,2013-01-04 03:35:00
9:55 PM,-9999,-9999,N/A,30.44,0.8,Calm,Calm,-,N/A,,Mist,0,2013-01-04 03:55:00
10:15 PM,-9999,-9999,N/A,30.44,2.5,Calm,Calm,-,N/A,,Clear,0,2013-01-04 04:15:00
10:35 PM,-9999,-9999,N/A,30.44,1.8,Calm,Calm,-,N/A,,Mist,0,2013-01-04 04:35:00
10:55 PM,-9999,-9999,N/A,30.43,0.2,Calm,Calm,-,N/A,Fog,Light Freezing Fog,0,2013-01-04 04:55:00
11:15 PM,-9999,-9999,N/A,30.43,0.8,Calm,Calm,-,N/A,,Mist,0,2013-01-04 05:15:00
11:35 PM,-9999,-9999,N/A,30.42,1.8,Calm,Calm,-,N/A,,Mist,0,2013-01-04 05:35:00
11:55 PM,-9999,-9999,N/A,30.42,3.0,Calm,Calm,-,N/A,,Clear,0,2013-01-04 05:55:00